Hourly Data Report for July 03, 2017

TORONTO CITY
ONTARIO

43°40'00.000" N
79°24'00.000" W
112.50 m
6158355
71508
XTO

Download Data

Hourly Data (July 2017)
Hourly Data Report for July 3, 2017
TIME
LST
Temp Definition
°C
Dew Point Definition
°C
Rel Hum Definition
%
Precip. Amount Definition
mm

Wind Dir Definition
10's deg

Wind Spd Definition
km/h
Visibility Definition
km
Stn Press Definition
kPa
Hmdx Definition


Wind Chill Definition


Weather Definition


00:00 18.6 14.2 76 0.0 LegendMM LegendMM   100.16     LegendNANA
01:00 18.3 13.4 73 0.0 LegendMM LegendMM   100.19     LegendNANA
02:00 18.1 13.1 73 0.0 LegendMM LegendMM   100.19     LegendNANA
03:00 17.6 11.9 69 0.0 LegendMM LegendMM   100.17     LegendNANA
04:00 16.8 11.7 72 0.0 LegendMM LegendMM   100.20     LegendNANA
05:00 16.0 12.0 77 0.0 LegendMM LegendMM   100.25     LegendNANA
06:00 16.0 12.2 79 0.0 LegendMM LegendMM   100.32     LegendNANA
07:00 18.2 11.5 65 0.0 LegendMM LegendMM   100.35     LegendNANA
08:00 19.9 11.5 58 0.0 LegendMM LegendMM   100.38     LegendNANA
09:00 21.1 9.9 49 0.0 LegendMM LegendMM   100.39     LegendNANA
10:00 22.7 9.9 44 0.0 LegendMM LegendMM   100.38     LegendNANA
11:00 23.0 11.2 47 0.0 LegendMM LegendMM   100.41 25   LegendNANA
12:00 22.9 12.0 50 0.0 LegendMM LegendMM   100.37 25   LegendNANA
13:00 23.9 11.2 45 0.0 LegendMM LegendMM   100.36 26   LegendNANA
14:00 24.3 11.1 43 0.0 LegendMM LegendMM   100.34 26   LegendNANA
15:00 24.1 10.8 43 0.0 LegendMM LegendMM   100.36 26   LegendNANA
16:00 24.5 11.7 45 0.0 LegendMM LegendMM   100.33 27   LegendNANA
17:00 23.7 11.3 46 0.0 LegendMM LegendMM   100.31 26   LegendNANA
18:00 22.5 11.0 48 0.0 LegendMM LegendMM   100.34     LegendNANA
19:00 22.5 10.5 47 0.0 LegendMM LegendMM   100.37     LegendNANA
20:00 22.0 11.5 52 0.0 LegendMM LegendMM   100.41     LegendNANA
21:00 21.5 10.9 51 0.0 LegendMM LegendMM   100.47     LegendNANA
22:00 20.3 10.3 53 0.0 LegendMM LegendMM   100.52     LegendNANA
23:00 19.2 10.5 57 0.0 LegendMM LegendMM   100.53     LegendNANA

Notes on Data Quality.

Legend

  • E = Estimated
  • M = Missing
  • NA = Not Available*
  • [empty] = Indicates an unobserved value
Date modified: